This is the latest recevied weather packets stored in our database for station/object KB9YVI-11. If no packets are shown the sender has not sent any weather packets the latest 10 day(s).
| Time | Temp. | Humidity | Pressure | Rain* | Wind** | Luminosity | Snow |
|---|---|---|---|---|---|---|---|
| 1777941029 | 22.22° C | 70% | 0 hPa | 0 mm | - | - | - |
| 1777940430 | 22.78° C | 69% | 0 hPa | 0 mm | - | - | - |
| 1777939830 | 22.78° C | 69% | 0 hPa | 0 mm | - | - | - |
| 1777939530 | 22.78° C | 70% | 0 hPa | 0 mm | - | - | - |
| 1777938931 | 22.78° C | 69% | 0 hPa | 0 mm | - | - | - |
| 1777937730 | 23.33° C | 69% | 0 hPa | 0 mm | - | - | - |
| 1777937429 | 23.33° C | 70% | 0 hPa | 0 mm | - | - | - |
| 1777937130 | 23.33° C | 69% | 0 hPa | 0 mm | - | - | - |
| 1777936832 | 23.89° C | 69% | 0 hPa | 0 mm | - | - | - |
| 1777936232 | 23.89° C | 69% | 0 hPa | 0 mm | - | - | - |
| 1777935030 | 24.44° C | 67% | 0 hPa | 0 mm | - | - | - |
| 1777934432 | 24.44° C | 69% | 0 hPa | 0 mm | - | - | - |
| 1777934132 | 24.44° C | 69% | 0 hPa | 0 mm | - | - | - |
| 1777933829 | 23.89° C | 70% | 0 hPa | 0 mm | - | - | - |
| 1777933531 | 23.89° C | 69% | 0 hPa | 0 mm | - | - | - |
| 1777933232 | 23.89° C | 69% | 0 hPa | 0 mm | - | - | - |
| 1777932931 | 23.89° C | 68% | 0 hPa | 0 mm | - | - | - |
| 1777932632 | 23.89° C | 68% | 0 hPa | 0 mm | - | - | - |
| 1777932331 | 24.44° C | 68% | 0 hPa | 0 mm | - | - | - |
| 1777931732 | 24.44° C | 68% | 0 hPa | 0 mm | - | - | - |
| 1777931131 | 24.44° C | 65% | 0 hPa | 0 mm | - | - | - |
| 1777930831 | 24.44° C | 66% | 0 hPa | 0 mm | - | - | - |
| 1777930229 | 23.89° C | 65% | 0 hPa | 0 mm | - | - | - |
| 1777929931 | 23.89° C | 67% | 0 hPa | 0 mm | - | - | - |
| 1777929331 | 23.33° C | 65% | 0 hPa | 0 mm | - | - | - |
* Rain latest hour (hover to see other rain measurements)
** Current wind speed in m/s (hover to see current wind gust speed)